SFERA 2 (42913 NORAD) Tracking and Keplerian Element Data

This shows tracking and keplerian element data for the satellite.

Feedback or suggestion? Click here.




ElementValue
Catalog42913
NameSFERA 2
Epoch Orbit5242
Epoch Day199.55200679
Epoch Year2018
RAAN197.1213
Inclination51.6326
Eccentricity0.0004794
Argument of Perigee12.05
Mean Anonmoly348.0613
Mean Motion15.75088532
Decay Rate0.00040117
L11 42913U 98067NC 18199.55200679 .00040117 00000-0 26579-3 0 9996
L22 42913 051.6326 197.1213 0004794 012.0500 348.0613 15.75088532052422

Live tracking and technical data element details for SFERA 2 (NORAD 42913). SFERA 2 can be tracked NOW for your location showing map with azimuth and elevation plus other details from your city location.

Track the satellite on the map from your city or location and see movement details for azimuth, elevation, latitude, longitude, range, height, and movement on the map or in text.







IsCatalogInMostPopularTable: catalog: 42913, numindb: 112
Update: records affected: 1



GetName: 42913 SFERA 2

Hit Count: updated at: Mon, 23 Jul 2018 08:00:19 GMT